Location: Marcé
(47.5801°N, 0.3280°W)
Time: 17:29:22
(UTC+01:00)

S-56A Canister/Altair - Pass Details

Date: 05 December 2021
Orbit: 633 x 2499 km, 38.9° (Epoch: 18 January)

Event Time Altitude Azimuth Distance (km) Brightness Sun altitude
Exits shadow 05:57:00 13° 191° (S) 1,995 9.6 -25.4°
Drops below altitude 10° 05:57:57 10° 180° (S) 2,126 9.9 -25.3°
Sets 06:01:04 0° 155° (SSE) 2,936 11.0 -24.7°
